Location: South Troy
(42.7009°N, 73.6726°W)
Time: 17:10:21
(UTC+00:00)

Resurs 01 Rocket - Pass Details

Date: 20 September 2024
Orbit: 628 x 640 km, 97.8° (Epoch: 08 October)

Event Time Altitude Azimuth Distance (km) Brightness Sun altitude
Exits shadow 23:22:43 - 108° (ESE) 2,296 3.8 -6.0°
Reaches altitude 10° 23:23:45 10° 98° (E) 2,027 3.5 -6.2°
Maximum altitude 23:26:16 15° 63° (ENE) 1,707 3.3 -6.6°
Drops below altitude 10° 23:28:48 10° 28° (NNE) 2,031 4.0 -7.1°
Sets 23:31:48 0° 6° (N) 2,942 5.1 -7.7°
